EW4164 Weather Reports


Display with metric or nautical units.
time (UTC)temp
F
wind
direction
speed
MPH
gust
MPH
rain 1hr
in
rain 24hr
in
rain mn
in
humidity
%
barometer
mb
20260506184627 53 189 4.0 12.0 0.01 0.21 0.09 93 1008.1
20260506184217 54 161 3.0 7.0 0.00 0.14 0.10 93 1007.9
20260506183217 54 180 3.0 7.0 0.00 0.16 0.10 93 1007.8
20260506183006 54 163 3.0 7.0 0.01 0.21 0.09 93 1007.9
20260506182224 54 211 3.0 7.0 0.00 0.17 0.09 92 1007.7
20260506181544 54 169 3.0 8.0 0.01 0.21 0.09 92 1007.8
20260506181212 54 233 2.0 7.0 0.00 0.17 0.09 92 1007.6
20260506180041 0 0.0 0.0 0.00 0.20 0.09 1007.7
20260506174529 0 0.0 0.0 0.02 0.20 0.09 1007.6
20260506173038 0 0.0 0.0 0.09 0.20 0.09 1007.3
20260506172213 57 198 2.0 1.0 0.09 0.19 0.09 88 1007.1
20260506171528 0 0.0 0.0 0.09 0.20 0.09 1007.1
20260506171213 57 198 2.0 1.0 0.09 0.19 0.09 88 1007.0
20260506170218 57 179 2.0 10.0 0.09 0.19 0.09 88 1006.9
20260506165212 57 155 3.0 10.0 0.08 0.18 0.09 88 1006.8
20260506164525 57 114 3.0 9.0 0.06 0.18 0.06 88 1007.0
20260506164212 57 194 3.0 11.0 0.03 0.13 0.04 87 1006.8
20260506163213 58 159 4.0 11.0 0.00 0.10 0.01 84 1006.6
20260506163107 58 208 3.0 12.0 0.00 0.12 0.00 84 1006.8
20260506162227 59 208 4.0 11.0 0.00 0.10 0.01 81 1006.5
20260506161506 59 190 4.0 11.0 0.00 0.12 0.00 79 1006.7
20260506161220 59 154 3.0 11.0 0.00 0.10 0.01 79 1006.5
20260506160251 60 160 3.0 0.0 0.00 0.10 0.01 77 1006.5
20260506160050 60 160 3.0 8.0 0.00 0.12 0.00 77 1006.6
20260506154547 60 247 3.0 11.0 0.00 0.12 0.00 74 1006.6
20260506061602 53 133 1.0 4.0 0.00 0.12 0.02 96 1006.6
20260506061230 53 163 1.0 4.0 0.00 0.12 0.01 96 1006.4
20260506060216 52 154 1.0 4.0 0.00 0.12 0.01 96 1006.4
20260506051220 50 240 1.0 2.0 0.00 0.12 0.01 95 1006.6
20260506050221 50 234 0.0 2.0 0.00 0.12 0.01 95 1006.6
20260506044601 49 234 0.0 2.0 0.00 0.12 0.02 95 1006.7
20260506044214 50 231 0.0 2.0 0.00 0.12 0.01 95 1006.5
20260506043225 50 213 0.0 1.0 0.00 0.12 0.01 95 1006.5
20260506043106 49 213 0.0 0.0 0.00 0.12 0.02 95 1006.7
20260506042243 50 213 0.0 1.0 0.00 0.12 0.01 95 1006.5
20260506041535 50 196 0.0 1.0 0.00 0.12 0.02 95 1006.6
20260506041233 50 182 1.0 2.0 0.00 0.12 0.01 95 1006.4
20260506040227 51 200 1.0 4.0 0.01 0.12 0.01 95 1006.5
20260506040022 50 128 0.0 2.0 0.01 0.12 0.02 95 1006.6
20260506035230 51 151 2.0 5.0 0.01 0.12 0.01 95 1006.5
20260506034600 51 262 1.0 7.0 0.01 0.12 0.02 95 1006.7
20260506034216 51 207 2.0 6.0 0.01 0.12 0.01 95 1006.6
20260506033231 51 177 2.0 5.0 0.01 0.12 0.01 95 1006.7
20260506033050 50 207 3.0 7.0 0.01 0.12 0.02 95 1006.8
20260506032223 50 223 1.0 4.0 0.01 0.12 0.01 95 1006.8
20260506031554 50 194 0.0 2.0 0.01 0.12 0.02 95 1007.0
20260506031210 51 223 1.0 3.0 0.01 0.12 0.01 95 1006.9
20260506030225 51 232 1.0 3.0 0.00 0.11 0.00 95 1007.1
20260506030030 51 238 1.0 2.0 0.00 0.11 0.01 95 1007.2
20260506025214 51 257 1.0 4.0 0.00 0.11 0.00 95 1007.2
20260506024540 51 155 1.0 4.0 0.00 0.11 0.01 95 1007.4
20260506024227 51 217 1.0 4.0 0.00 0.11 0.00 95 1007.3
20260506023222 51 175 1.0 3.0 0.00 0.11 0.00 95 1007.3
20260506023030 51 136 1.0 5.0 0.00 0.11 0.01 95 1007.5
20260506022222 51 149 1.0 3.0 0.00 0.11 0.00 95 1007.4
20260506021521 51 167 0.0 3.0 0.00 0.11 0.01 95 1007.5
20260506020210 51 171 2.0 5.0 0.00 0.11 0.00 95 1007.3
20260506020034 51 105 1.0 5.0 0.00 0.11 0.01 95 1007.3
20260506015207 51 158 1.0 2.0 0.00 0.11 0.00 94 1007.1
20260506014553 50 207 0.0 1.0 0.00 0.11 0.01 94 1007.2
20260506014225 51 198 0.0 1.0 0.00 0.11 0.00 94 1007.0
20260506013102 51 238 0.0 1.0 0.00 0.11 0.01 94 1007.2
20260506011557 51 208 0.0 2.0 0.00 0.11 0.01 94 1007.4
20260506011223 52 200 0.0 1.0 0.00 0.11 0.00 94 1007.4
20260506010226 52 211 1.0 2.0 0.00 0.11 0.00 94 1007.5
20260506010045 52 211 0.0 2.0 0.00 0.11 0.01 94 1007.6
20260506005220 53 202 1.0 2.0 0.00 0.11 0.00 94 1007.4
20260506004625 52 189 0.0 2.0 0.00 0.11 0.01 94 1007.6
20260506004222 53 242 1.0 3.0 0.00 0.11 0.00 94 1007.5
20260506003212 53 219 0.0 1.0 0.00 0.11 0.00 94 1007.6
20260506003016 53 204 0.0 2.0 0.00 0.11 0.01 94 1007.7
20260506002231 53 200 1.0 3.0 0.00 0.11 0.00 94 1007.6
20260506001528 53 248 0.0 3.0 0.00 0.11 0.01 94 1007.8
20260506001230 54 229 1.0 3.0 0.00 0.11 0.00 94 1007.8
20260506000044 53 175 0.0 3.0 0.00 0.11 0.01 94 1008.0
20260505234618 53 173 0.0 2.0 0.00 0.11 0.01 94 1008.0
20260505234225 54 194 1.0 3.0 0.00 0.11 0.00 94 1008.0
20260505233221 53 214 1.0 3.0 0.00 0.11 0.00 94 1008.1
20260505233009 53 213 1.0 3.0 0.00 0.11 0.01 94 1008.2
20260505232212 53 167 1.0 2.0 0.00 0.11 0.00 94 1008.1
20260505231510 53 205 0.0 2.0 0.00 0.11 0.01 94 1008.2
20260505231215 53 182 1.0 4.0 0.00 0.11 0.00 94 1008.1
20260505230216 54 180 1.0 4.0 0.00 0.11 0.00 94 1008.1
20260505230109 53 184 0.0 3.0 0.00 0.11 0.01 94 1008.2
20260505225218 54 103 1.0 2.0 0.01 0.11 0.00 94 1008.2
20260505224600 53 232 0.0 2.0 0.01 0.11 0.01 93 1008.3
20260505223219 54 224 1.0 3.0 0.01 0.11 0.00 94 1008.1
20260505223033 54 209 1.0 3.0 0.01 0.11 0.01 94 1008.2
20260505222228 54 193 1.0 3.0 0.01 0.11 0.00 93 1008.1
20260505221513 54 200 0.0 2.0 0.01 0.11 0.01 93 1008.2
20260505221218 54 198 1.0 4.0 0.01 0.11 0.00 93 1008.1
20260505220218 54 222 1.0 4.0 0.01 0.11 0.11 93 1008.0
20260505220138 54 196 0.0 3.0 0.01 0.11 0.01 93 1008.2
20260505215223 55 207 0.0 2.0 0.00 0.10 0.10 93 1008.0
20260505214619 54 244 0.0 1.0 0.00 0.10 0.10 93 1008.2
20260505214224 55 192 0.0 2.0 0.00 0.10 0.10 93 1008.1
20260505213210 55 213 1.0 2.0 0.00 0.10 0.10 93 1008.1
20260505213100 54 218 0.0 2.0 0.00 0.10 0.10 93 1008.2
20260505212219 55 230 0.0 2.0 0.00 0.10 0.10 93 1008.1
20260505211527 55 182 0.0 1.0 0.00 0.10 0.10 93 1008.2
20260505211218 55 232 0.0 2.0 0.00 0.10 0.10 93 1008.1
20260505210221 56 232 1.0 4.0 0.00 0.10 0.10 93 1008.1
20260505210057 55 232 0.0 3.0 0.00 0.10 0.10 93 1008.3
20260505205219 56 242 1.0 4.0 0.00 0.10 0.10 93 1008.1
20260505204503 56 222 0.0 3.0 0.00 0.10 0.10 93 1008.3
20260505204234 56 138 1.0 5.0 0.00 0.10 0.10 93 1008.2
20260505203217 56 243 2.0 5.0 0.00 0.10 0.10 93 1008.2
20260505203017 56 214 1.0 6.0 0.00 0.10 0.10 93 1008.3
20260505202224 56 189 2.0 4.0 0.00 0.10 0.10 92 1008.2
20260505201528 56 119 1.0 4.0 0.00 0.10 0.10 92 1008.2
20260505201209 57 174 1.0 2.0 0.01 0.10 0.10 92 1008.1
20260505200224 57 200 1.0 3.0 0.02 0.10 0.10 92 1008.0
20260505200107 56 165 1.0 3.0 0.02 0.10 0.10 92 1008.1
20260505195227 57 200 1.0 3.0 0.02 0.10 0.10 92 1007.9
20260505194550 57 192 1.0 4.0 0.02 0.10 0.10 92 1007.9
20260505194211 57 163 1.0 3.0 0.03 0.10 0.10 91 1007.9
20260505193232 57 166 1.0 3.0 0.05 0.10 0.10 91 1007.8
20260505193054 57 155 0.0 3.0 0.04 0.10 0.10 91 1007.8
20260505192223 58 184 1.0 3.0 0.06 0.10 0.10 91 1007.6
20260505191517 57 194 0.0 2.0 0.08 0.10 0.10 91 1007.7
20260505191223 58 148 1.0 2.0 0.06 0.09 0.09 91 1007.6
20260505190220 58 186 1.0 3.0 0.05 0.09 0.09 90 1007.6
20260505185217 59 198 1.0 3.0 0.05 0.09 0.09 90 1007.7